Time,TemperatureF,DewpointF,PressureIn,WindDirection,WindDirectionDegrees,WindSpeedMPH,WindSpeedGustMPH,Humidity,HourlyPrecipIn,Conditions,Clouds,dailyrainin,SoftwareType,DateUTC
2013-01-16 00:00:00,26.9,3.7,30.42,SW,225,2.2,3.6,32,-99.99,,,-99.99,WSDL version 420,2013-01-16 08:00:00,
2013-01-16 00:05:00,26.9,3.7,30.42,SW,225,0.0,3.6,32,-99.99,,,-99.99,WSDL version 420,2013-01-16 08:05:00,
2013-01-16 00:10:00,26.9,3.7,30.42,SW,225,0.0,0.0,32,-99.99,,,-99.99,WSDL version 420,2013-01-16 08:10:00,
2013-01-16 00:15:00,27.1,3.8,30.42,SW,225,0.0,0.0,32,-99.99,,,-99.99,WSDL version 420,2013-01-16 08:15:00,
2013-01-16 00:21:00,26.9,3.7,30.42,SW,225,0.0,0.0,32,-99.99,,,-99.99,WSDL version 420,2013-01-16 08:21:00,
2013-01-16 00:27:00,27.2,3.9,30.42,SW,225,0.0,0.0,32,-99.99,,,-99.99,WSDL version 420,2013-01-16 08:27:00,
2013-01-16 00:32:00,27.3,4.0,30.42,SW,225,0.0,0.0,32,-99.99,,,-99.99,WSDL version 420,2013-01-16 08:32:00,
2013-01-16 00:37:00,27.4,4.1,30.42,SW,225,0.0,0.0,32,-99.99,,,-99.99,WSDL version 420,2013-01-16 08:37:00,
2013-01-16 00:42:00,27.1,4.1,30.42,SW,225,0.0,0.0,33,-99.99,,,-99.99,WSDL version 420,2013-01-16 08:42:00,
2013-01-16 00:47:00,27.0,4.2,30.42,SW,225,0.0,0.0,33,-99.99,,,-99.99,WSDL version 420,2013-01-16 08:47:00,
2013-01-16 00:52:00,27.0,3.8,30.42,SW,225,0.0,3.1,32,-99.99,,,-99.99,WSDL version 420,2013-01-16 08:52:00,
2013-01-16 00:57:00,27.0,3.7,30.42,SW,225,0.0,3.1,32,-99.99,,,-99.99,WSDL version 420,2013-01-16 08:57:00,
2013-01-16 01:02:00,26.9,3.7,30.42,SW,225,0.0,4.0,32,-99.99,,,-99.99,WSDL version 420,2013-01-16 09:02:00,
2013-01-16 01:07:00,26.8,3.6,30.42,WSW,248,0.0,4.0,32,-99.99,,,-99.99,WSDL version 420,2013-01-16 09:07:00,
2013-01-16 01:12:00,26.3,3.1,30.42,West,270,1.6,6.3,32,-99.99,,,-99.99,WSDL version 420,2013-01-16 09:12:00,
2013-01-16 01:17:00,26.9,3.6,30.42,SW,225,2.2,6.3,32,-99.99,,,-99.99,WSDL version 420,2013-01-16 09:17:00,
2013-01-16 01:22:00,26.9,3.7,30.42,SW,225,0.0,5.4,32,-99.99,,,-99.99,WSDL version 420,2013-01-16 09:22:00,
2013-01-16 01:27:00,26.8,3.6,30.42,SW,225,0.0,0.0,32,-99.99,,,-99.99,WSDL version 420,2013-01-16 09:27:00,
2013-01-16 01:32:00,26.6,3.7,30.42,SW,225,0.0,0.0,33,-99.99,,,-99.99,WSDL version 420,2013-01-16 09:32:00,
2013-01-16 01:37:00,26.2,3.6,30.42,SW,225,0.0,0.0,33,-99.99,,,-99.99,WSDL version 420,2013-01-16 09:37:00,
2013-01-16 01:42:00,26.2,3.7,30.42,SW,225,0.0,0.0,33,-99.99,,,-99.99,WSDL version 420,2013-01-16 09:42:00,
2013-01-16 01:47:00,26.2,3.7,30.42,SW,225,0.0,0.0,33,-99.99,,,-99.99,WSDL version 420,2013-01-16 09:47:00,
2013-01-16 01:52:00,26.1,3.5,30.42,SW,225,0.0,0.0,33,-99.99,,,-99.99,WSDL version 420,2013-01-16 09:52:00,
2013-01-16 01:57:00,25.7,3.2,30.42,SW,225,0.0,0.0,33,-99.99,,,-99.99,WSDL version 420,2013-01-16 09:57:00,
2013-01-16 02:02:00,25.5,3.0,30.42,SW,225,0.0,0.0,33,-99.99,,,-99.99,WSDL version 420,2013-01-16 10:02:00,
2013-01-16 02:07:00,25.8,3.2,30.42,SW,225,0.0,0.0,33,-99.99,,,-99.99,WSDL version 420,2013-01-16 10:07:00,
2013-01-16 02:12:00,25.3,2.9,30.42,SW,225,0.0,0.0,33,-99.99,,,-99.99,WSDL version 420,2013-01-16 10:12:00,
2013-01-16 02:17:00,25.0,2.5,30.42,SW,225,0.0,0.0,33,-99.99,,,-99.99,WSDL version 420,2013-01-16 10:17:00,
2013-01-16 02:22:00,25.1,2.6,30.42,SW,225,0.0,0.0,33,-99.99,,,-99.99,WSDL version 420,2013-01-16 10:22:00,
2013-01-16 02:27:00,25.0,2.9,30.42,SW,225,0.0,0.0,34,-99.99,,,-99.99,WSDL version 420,2013-01-16 10:27:00,
2013-01-16 02:32:00,25.1,3.2,30.42,SW,225,0.0,0.0,34,-99.99,,,-99.99,WSDL version 420,2013-01-16 10:32:00,
2013-01-16 02:37:00,25.3,3.4,30.42,SW,225,0.0,0.0,34,-99.99,,,-99.99,WSDL version 420,2013-01-16 10:37:00,
2013-01-16 02:42:00,25.1,3.2,30.42,SW,225,0.0,0.0,34,-99.99,,,-99.99,WSDL version 420,2013-01-16 10:42:00,
2013-01-16 02:47:00,25.1,3.2,30.42,SW,225,0.0,0.0,34,-99.99,,,-99.99,WSDL version 420,2013-01-16 10:47:00,
2013-01-16 02:52:00,25.3,3.4,30.42,SW,225,0.0,0.0,34,-99.99,,,-99.99,WSDL version 420,2013-01-16 10:52:00,
2013-01-16 02:57:00,25.0,3.1,30.42,SW,225,0.0,0.0,34,-99.99,,,-99.99,WSDL version 420,2013-01-16 10:57:00,
2013-01-16 03:02:00,24.8,3.0,30.42,SW,225,0.0,0.0,34,-99.99,,,-99.99,WSDL version 420,2013-01-16 11:02:00,
2013-01-16 03:07:00,24.5,3.2,30.42,SW,225,0.0,0.0,35,-99.99,,,-99.99,WSDL version 420,2013-01-16 11:07:00,
2013-01-16 03:12:00,24.3,3.0,30.42,SW,225,0.0,0.0,35,-99.99,,,-99.99,WSDL version 420,2013-01-16 11:12:00,
2013-01-16 03:17:00,24.4,3.1,30.42,SW,225,0.0,0.0,35,-99.99,,,-99.99,WSDL version 420,2013-01-16 11:17:00,
2013-01-16 03:22:00,24.4,3.2,30.42,SW,225,0.0,0.0,35,-99.99,,,-99.99,WSDL version 420,2013-01-16 11:22:00,
2013-01-16 03:27:00,24.6,3.3,30.42,SW,225,0.0,3.6,35,-99.99,,,-99.99,WSDL version 420,2013-01-16 11:27:00,
2013-01-16 03:32:00,24.5,3.2,30.42,SW,225,0.0,3.6,35,-99.99,,,-99.99,WSDL version 420,2013-01-16 11:32:00,
2013-01-16 03:37:00,24.8,3.5,30.42,SW,225,0.0,0.0,35,-99.99,,,-99.99,WSDL version 420,2013-01-16 11:37:00,
2013-01-16 03:42:00,24.5,3.2,30.42,SW,225,0.0,0.0,35,-99.99,,,-99.99,WSDL version 420,2013-01-16 11:42:00,
2013-01-16 03:47:00,24.4,3.2,30.42,SW,225,0.0,0.0,35,-99.99,,,-99.99,WSDL version 420,2013-01-16 11:47:00,
2013-01-16 03:52:00,24.6,3.3,30.42,SW,225,0.0,0.0,35,-99.99,,,-99.99,WSDL version 420,2013-01-16 11:52:00,
2013-01-16 03:57:00,24.2,3.0,30.42,SW,225,0.0,0.0,35,-99.99,,,-99.99,WSDL version 420,2013-01-16 11:57:00,
2013-01-16 04:05:00,23.9,2.7,30.42,SW,225,0.0,0.0,35,-99.99,,,-99.99,WSDL version 420,2013-01-16 12:05:00,
2013-01-16 04:10:00,24.1,2.8,30.42,SW,225,0.0,0.0,35,-99.99,,,-99.99,WSDL version 420,2013-01-16 12:10:00,
2013-01-16 04:15:00,24.4,3.1,30.42,SW,225,0.0,0.0,35,-99.99,,,-99.99,WSDL version 420,2013-01-16 12:15:00,
2013-01-16 04:20:00,24.5,3.2,30.42,SW,225,0.0,0.0,35,-99.99,,,-99.99,WSDL version 420,2013-01-16 12:20:00,
2013-01-16 04:25:00,24.5,3.0,30.42,SW,225,0.0,0.0,34,-99.99,,,-99.99,WSDL version 420,2013-01-16 12:25:00,
2013-01-16 04:30:00,24.5,2.7,30.42,SW,225,0.0,0.0,34,-99.99,,,-99.99,WSDL version 420,2013-01-16 12:30:00,
2013-01-16 04:35:00,24.1,2.4,30.42,SW,225,1.2,3.1,35,-99.99,,,-99.99,WSDL version 420,2013-01-16 12:35:00,
2013-01-16 04:40:00,23.7,2.5,30.42,SW,225,0.0,3.1,35,-99.99,,,-99.99,WSDL version 420,2013-01-16 12:40:00,
2013-01-16 04:45:00,23.6,2.4,30.42,SW,225,0.0,2.2,35,-99.99,,,-99.99,WSDL version 420,2013-01-16 12:45:00,
2013-01-16 04:50:00,23.5,2.3,30.42,SW,225,0.0,2.2,35,-99.99,,,-99.99,WSDL version 420,2013-01-16 12:50:00,
2013-01-16 04:55:00,23.2,1.8,30.42,SW,225,0.0,0.0,35,-99.99,,,-99.99,WSDL version 420,2013-01-16 12:55:00,
2013-01-16 05:00:00,23.1,1.9,30.42,SW,225,0.0,0.0,35,-99.99,,,-99.99,WSDL version 420,2013-01-16 13:00:00,
2013-01-16 05:05:00,22.9,2.3,30.42,SW,225,0.0,0.0,36,-99.99,,,-99.99,WSDL version 420,2013-01-16 13:05:00,
2013-01-16 05:10:00,22.7,2.1,30.42,SW,225,0.0,0.0,36,-99.99,,,-99.99,WSDL version 420,2013-01-16 13:10:00,
2013-01-16 05:15:00,22.6,2.1,30.42,SW,225,0.0,0.0,36,-99.99,,,-99.99,WSDL version 420,2013-01-16 13:15:00,
2013-01-16 05:20:00,22.3,1.7,30.42,SW,225,0.0,0.0,36,-99.99,,,-99.99,WSDL version 420,2013-01-16 13:20:00,
2013-01-16 05:25:00,22.1,1.6,30.42,SW,225,0.0,0.0,36,-99.99,,,-99.99,WSDL version 420,2013-01-16 13:25:00,
2013-01-16 05:30:00,22.0,1.8,30.42,SW,225,0.0,0.0,37,-99.99,,,-99.99,WSDL version 420,2013-01-16 13:30:00,
2013-01-16 05:35:00,22.1,2.1,30.42,SW,225,0.0,0.0,37,-99.99,,,-99.99,WSDL version 420,2013-01-16 13:35:00,
2013-01-16 05:40:00,22.4,1.8,30.42,SW,225,0.0,0.0,36,-99.99,,,-99.99,WSDL version 420,2013-01-16 13:40:00,
2013-01-16 05:45:00,22.2,1.6,30.42,SW,225,0.0,0.0,36,-99.99,,,-99.99,WSDL version 420,2013-01-16 13:45:00,
2013-01-16 05:50:00,21.8,1.3,30.42,SW,225,0.0,0.0,36,-99.99,,,-99.99,WSDL version 420,2013-01-16 13:50:00,
2013-01-16 05:55:00,21.6,1.1,30.42,SW,225,0.0,0.0,36,-99.99,,,-99.99,WSDL version 420,2013-01-16 13:55:00,
2013-01-16 06:00:00,21.7,1.2,30.42,SW,225,0.0,0.0,36,-99.99,,,-99.99,WSDL version 420,2013-01-16 14:00:00,
2013-01-16 06:05:00,21.8,1.8,30.42,SW,225,0.0,0.0,37,-99.99,,,-99.99,WSDL version 420,2013-01-16 14:05:00,
2013-01-16 06:10:00,21.8,1.8,30.42,SW,225,0.0,0.0,37,-99.99,,,-99.99,WSDL version 420,2013-01-16 14:10:00,
2013-01-16 06:15:00,21.9,1.9,30.42,SW,225,0.0,0.0,37,-99.99,,,-99.99,WSDL version 420,2013-01-16 14:15:00,
2013-01-16 06:20:00,21.7,2.0,30.42,SW,225,0.0,0.0,38,-99.99,,,-99.99,WSDL version 420,2013-01-16 14:20:00,
2013-01-16 06:25:00,21.7,1.9,30.42,SW,225,0.0,0.0,38,-99.99,,,-99.99,WSDL version 420,2013-01-16 14:25:00,
2013-01-16 06:30:00,22.0,2.0,30.42,SW,225,0.0,0.0,37,-99.99,,,-99.99,WSDL version 420,2013-01-16 14:30:00,
2013-01-16 06:35:00,22.1,2.1,30.42,SW,225,0.0,0.0,37,-99.99,,,-99.99,WSDL version 420,2013-01-16 14:35:00,
2013-01-16 06:40:00,21.9,1.9,30.42,SW,225,0.0,0.0,37,-99.99,,,-99.99,WSDL version 420,2013-01-16 14:40:00,
2013-01-16 06:45:00,21.9,2.1,30.42,SW,225,0.0,4.0,37,-99.99,,,-99.99,WSDL version 420,2013-01-16 14:45:00,
2013-01-16 06:50:00,22.0,2.2,30.42,SW,225,2.5,4.0,37,-99.99,,,-99.99,WSDL version 420,2013-01-16 14:50:00,
2013-01-16 06:55:00,22.0,2.1,30.42,SW,225,0.0,3.6,38,-99.99,,,-99.99,WSDL version 420,2013-01-16 14:55:00,
2013-01-16 07:00:00,22.0,2.1,30.45,SW,225,0.0,3.6,37,-99.99,,,-99.99,WSDL version 420,2013-01-16 15:00:00,
2013-01-16 07:05:00,21.9,2.1,30.45,SW,225,0.0,3.1,38,-99.99,,,-99.99,WSDL version 420,2013-01-16 15:05:00,
2013-01-16 07:10:00,21.8,2.4,30.45,SW,225,0.0,2.2,38,-99.99,,,-99.99,WSDL version 420,2013-01-16 15:10:00,
2013-01-16 07:15:00,22.0,2.5,30.45,SW,225,0.0,2.2,38,-99.99,,,-99.99,WSDL version 420,2013-01-16 15:15:00,
2013-01-16 07:20:00,22.5,3.0,30.45,SW,225,0.0,2.2,38,-99.99,,,-99.99,WSDL version 420,2013-01-16 15:20:00,
2013-01-16 07:25:00,22.9,3.2,30.45,SW,225,0.0,0.0,37,-99.99,,,-99.99,WSDL version 420,2013-01-16 15:25:00,
2013-01-16 07:30:00,23.3,3.3,30.45,SW,225,0.0,0.0,38,-99.99,,,-99.99,WSDL version 420,2013-01-16 15:30:00,
2013-01-16 07:35:00,23.9,4.2,30.45,SW,225,0.0,0.0,38,-99.99,,,-99.99,WSDL version 420,2013-01-16 15:35:00,
2013-01-16 07:40:00,24.5,4.3,30.45,SW,225,0.0,0.0,37,-99.99,,,-99.99,WSDL version 420,2013-01-16 15:40:00,
2013-01-16 07:45:00,25.5,5.2,30.45,SW,225,0.0,0.0,37,-99.99,,,-99.99,WSDL version 420,2013-01-16 15:45:00,
2013-01-16 07:50:00,26.4,5.5,30.45,SW,225,0.0,0.0,36,-99.99,,,-99.99,WSDL version 420,2013-01-16 15:50:00,
2013-01-16 07:55:00,27.5,6.2,30.45,SW,225,0.0,0.0,35,-99.99,,,-99.99,WSDL version 420,2013-01-16 15:55:00,
2013-01-16 08:00:00,28.3,6.7,30.45,SW,225,0.0,0.0,35,-99.99,,,-99.99,WSDL version 420,2013-01-16 16:00:00,
2013-01-16 08:05:00,29.5,7.8,30.45,SW,225,0.0,0.0,35,-99.99,,,-99.99,WSDL version 420,2013-01-16 16:05:00,
2013-01-16 08:10:00,30.5,8.3,30.45,SW,225,0.0,3.1,34,-99.99,,,-99.99,WSDL version 420,2013-01-16 16:10:00,
2013-01-16 08:15:00,31.3,8.4,30.45,SW,225,0.0,3.1,34,-99.99,,,-99.99,WSDL version 420,2013-01-16 16:15:00,
2013-01-16 08:20:00,32.4,6.5,30.45,SW,225,0.0,2.7,33,-99.99,,,-99.99,WSDL version 420,2013-01-16 16:20:00,
2013-01-16 08:25:00,33.4,7.3,30.45,SW,235,0.0,0.0,33,-99.99,,,-99.99,WSDL version 420,2013-01-16 16:25:00,
2013-01-16 08:30:00,33.0,7.0,30.45,NNE,23,0.0,3.1,33,-99.99,,,-99.99,WSDL version 420,2013-01-16 16:30:00,
2013-01-16 08:35:00,33.7,7.2,30.45,NNE,23,1.3,3.6,33,-99.99,,,-99.99,WSDL version 420,2013-01-16 16:35:00,
2013-01-16 08:40:00,34.6,7.8,30.45,NNE,23,0.0,3.6,32,-99.99,,,-99.99,WSDL version 420,2013-01-16 16:40:00,
2013-01-16 08:45:00,36.1,9.1,30.45,NNE,23,0.0,3.1,32,-99.99,,,-99.99,WSDL version 420,2013-01-16 16:45:00,
2013-01-16 08:50:00,37.3,9.8,30.45,NNE,23,0.0,3.1,31,-99.99,,,-99.99,WSDL version 420,2013-01-16 16:50:00,
2013-01-16 08:55:00,37.7,9.8,30.45,NNE,23,0.0,3.1,31,-99.99,,,-99.99,WSDL version 420,2013-01-16 16:55:00,
2013-01-16 09:00:00,38.6,10.6,30.45,NNE,23,0.0,2.7,31,-99.99,,,-99.99,WSDL version 420,2013-01-16 17:00:00,
2013-01-16 09:05:00,39.0,10.7,30.45,NNE,23,0.0,2.7,30,-99.99,,,-99.99,WSDL version 420,2013-01-16 17:05:00,
2013-01-16 09:10:00,39.4,10.5,30.45,NNE,23,0.0,3.1,30,-99.99,,,-99.99,WSDL version 420,2013-01-16 17:10:00,
2013-01-16 09:15:00,40.5,11.1,30.45,NNE,23,0.0,3.1,29,-99.99,,,-99.99,WSDL version 420,2013-01-16 17:15:00,
2013-01-16 09:20:00,42.0,12.0,30.45,NNE,30,0.0,3.1,29,-99.99,,,-99.99,WSDL version 420,2013-01-16 17:20:00,
2013-01-16 09:25:00,41.7,11.8,30.45,NE,45,0.0,3.1,29,-99.99,,,-99.99,WSDL version 420,2013-01-16 17:25:00,
2013-01-16 09:30:00,42.2,12.2,30.45,NE,45,0.0,2.2,29,-99.99,,,-99.99,WSDL version 420,2013-01-16 17:30:00,
2013-01-16 09:35:00,43.2,13.1,30.45,NE,45,0.0,0.0,29,-99.99,,,-99.99,WSDL version 420,2013-01-16 17:35:00,
2013-01-16 09:40:00,44.2,13.9,30.45,NE,45,0.0,0.0,29,-99.99,,,-99.99,WSDL version 420,2013-01-16 17:40:00,
2013-01-16 09:45:00,44.9,14.0,30.45,NE,45,0.0,0.0,28,-99.99,,,-99.99,WSDL version 420,2013-01-16 17:45:00,
2013-01-16 09:50:00,44.1,13.7,30.45,NE,45,1.4,3.6,29,-99.99,,,-99.99,WSDL version 420,2013-01-16 17:50:00,
2013-01-16 09:55:00,43.6,13.1,30.45,North,8,2.4,4.0,28,-99.99,,,-99.99,WSDL version 420,2013-01-16 17:55:00,
2013-01-16 10:00:00,43.3,12.7,30.45,NNW,338,1.1,4.0,28,-99.99,,,-99.99,WSDL version 420,2013-01-16 18:00:00,
2013-01-16 10:05:00,43.7,12.7,30.45,NNW,338,0.3,4.0,28,-99.99,,,-99.99,WSDL version 420,2013-01-16 18:05:00,
2013-01-16 10:10:00,44.1,13.2,30.45,North,6,1.3,4.0,28,-99.99,,,-99.99,WSDL version 420,2013-01-16 18:10:00,
2013-01-16 10:15:00,44.6,13.5,30.45,NNW,338,2.6,4.0,28,-99.99,,,-99.99,WSDL version 420,2013-01-16 18:15:00,
2013-01-16 10:20:00,45.0,13.9,30.45,NNE,32,3.3,4.9,28,-99.99,,,-99.99,WSDL version 420,2013-01-16 18:20:00,
2013-01-16 10:25:00,45.4,14.2,30.45,NNE,33,3.8,5.4,28,-99.99,,,-99.99,WSDL version 420,2013-01-16 18:25:00,
2013-01-16 10:30:00,45.0,13.8,30.45,ENE,62,2.2,5.4,28,-99.99,,,-99.99,WSDL version 420,2013-01-16 18:30:00,
2013-01-16 10:35:00,45.6,14.4,30.45,ENE,65,3.4,4.9,28,-99.99,,,-99.99,WSDL version 420,2013-01-16 18:35:00,
2013-01-16 10:40:00,45.9,14.4,30.45,NNE,23,3.9,5.4,28,-99.99,,,-99.99,WSDL version 420,2013-01-16 18:40:00,
2013-01-16 10:45:00,45.5,14.3,30.45,NE,39,3.9,5.4,28,-99.99,,,-99.99,WSDL version 420,2013-01-16 18:45:00,
2013-01-16 10:50:00,45.8,14.5,30.45,North,353,3.6,5.8,28,-99.99,,,-99.99,WSDL version 420,2013-01-16 18:50:00,
2013-01-16 10:55:00,45.4,14.2,30.45,NNE,23,2.9,5.8,28,-99.99,,,-99.99,WSDL version 420,2013-01-16 18:55:00,
2013-01-16 11:00:00,46.8,14.6,30.45,NE,39,3.0,5.4,27,-99.99,,,-99.99,WSDL version 420,2013-01-16 19:00:00,
2013-01-16 11:06:00,46.8,14.6,30.45,North,352,1.3,4.9,27,-99.99,,,-99.99,WSDL version 420,2013-01-16 19:06:00,
2013-01-16 11:11:00,46.9,14.6,30.45,NE,35,2.5,4.9,27,-99.99,,,-99.99,WSDL version 420,2013-01-16 19:11:00,
2013-01-16 11:16:00,48.7,15.5,30.42,ENE,68,2.6,4.9,26,-99.99,,,-99.99,WSDL version 420,2013-01-16 19:16:00,
2013-01-16 11:21:00,48.7,15.5,30.42,NNE,23,3.8,5.4,27,-99.99,,,-99.99,WSDL version 420,2013-01-16 19:21:00,
2013-01-16 11:26:00,48.4,15.4,30.42,NE,43,1.3,5.4,26,-99.99,,,-99.99,WSDL version 420,2013-01-16 19:26:00,
2013-01-16 11:31:00,49.5,16.0,30.42,East,84,3.1,5.8,26,-99.99,,,-99.99,WSDL version 420,2013-01-16 19:31:00,
2013-01-16 11:36:00,50.2,16.6,30.42,East,90,0.0,5.8,26,-99.99,,,-99.99,WSDL version 420,2013-01-16 19:36:00,
2013-01-16 11:41:00,50.8,17.1,30.42,East,87,1.3,4.9,26,-99.99,,,-99.99,WSDL version 420,2013-01-16 19:41:00,
2013-01-16 11:46:00,49.8,16.3,30.39,North,5,2.9,5.4,26,-99.99,,,-99.99,WSDL version 420,2013-01-16 19:46:00,
2013-01-16 11:51:00,49.1,15.7,30.39,NNE,20,3.1,5.4,26,-99.99,,,-99.99,WSDL version 420,2013-01-16 19:51:00,
2013-01-16 11:56:00,50.0,16.5,30.39,ENE,68,0.0,4.0,26,-99.99,,,-99.99,WSDL version 420,2013-01-16 19:56:00,
2013-01-16 12:01:00,51.8,18.0,30.39,SW,225,1.1,3.6,26,-99.99,,,-99.99,WSDL version 420,2013-01-16 20:01:00,
2013-01-16 12:06:00,52.1,18.2,30.39,East,87,3.4,4.9,26,-99.99,,,-99.99,WSDL version 420,2013-01-16 20:06:00,
2013-01-16 12:11:00,52.0,18.2,30.39,ENE,68,2.4,4.9,26,-99.99,,,-99.99,WSDL version 420,2013-01-16 20:11:00,
2013-01-16 12:16:00,52.1,18.3,30.39,NNE,23,0.0,3.6,26,-99.99,,,-99.99,WSDL version 420,2013-01-16 20:16:00,
2013-01-16 12:21:00,53.5,19.1,30.39,NE,45,0.0,3.6,26,-99.99,,,-99.99,WSDL version 420,2013-01-16 20:21:00,
2013-01-16 12:26:00,53.2,19.2,30.39,NNW,340,0.0,3.6,26,-99.99,,,-99.99,WSDL version 420,2013-01-16 20:26:00,
2013-01-16 12:31:00,52.3,18.2,30.36,North,360,4.3,5.4,26,-99.99,,,-99.99,WSDL version 420,2013-01-16 20:31:00,
2013-01-16 12:36:00,51.6,17.9,30.36,NNE,23,1.2,5.4,26,-99.99,,,-99.99,WSDL version 420,2013-01-16 20:36:00,
2013-01-16 12:41:00,53.5,18.8,30.36,NW,305,0.0,3.1,25,-99.99,,,-99.99,WSDL version 420,2013-01-16 20:41:00,
2013-01-16 12:46:00,53.4,18.9,30.36,NNW,343,3.3,4.9,26,-99.99,,,-99.99,WSDL version 420,2013-01-16 20:46:00,
2013-01-16 12:51:00,52.2,18.4,30.36,North,349,2.0,5.4,26,-99.99,,,-99.99,WSDL version 420,2013-01-16 20:51:00,
2013-01-16 12:56:00,52.8,18.7,30.36,West,270,0.0,5.4,25,-99.99,,,-99.99,WSDL version 420,2013-01-16 20:56:00,
2013-01-16 13:01:00,55.0,19.8,30.36,West,276,2.5,4.9,25,-99.99,,,-99.99,WSDL version 420,2013-01-16 21:01:00,
2013-01-16 13:06:00,54.6,19.5,30.36,NNE,30,2.7,5.4,25,-99.99,,,-99.99,WSDL version 420,2013-01-16 21:06:00,
2013-01-16 13:11:00,53.9,19.1,30.36,NNE,23,3.3,5.4,26,-99.99,,,-99.99,WSDL version 420,2013-01-16 21:11:00,
2013-01-16 13:16:00,54.3,19.3,30.33,NNW,335,2.2,4.0,25,-99.99,,,-99.99,WSDL version 420,2013-01-16 21:16:00,
2013-01-16 13:21:00,55.6,20.4,30.33,NW,318,0.0,4.5,25,-99.99,,,-99.99,WSDL version 420,2013-01-16 21:21:00,
2013-01-16 13:26:00,55.6,20.3,30.33,North,352,2.7,4.9,25,-99.99,,,-99.99,WSDL version 420,2013-01-16 21:26:00,
2013-01-16 13:31:00,55.9,20.6,30.33,ENE,63,2.9,4.9,25,-99.99,,,-99.99,WSDL version 420,2013-01-16 21:31:00,
2013-01-16 13:36:00,56.7,21.3,30.33,ESE,113,1.8,4.5,25,-99.99,,,-99.99,WSDL version 420,2013-01-16 21:36:00,
2013-01-16 13:42:00,57.4,21.4,30.33,NNE,28,0.0,4.5,24,-99.99,,,-99.99,WSDL version 420,2013-01-16 21:42:00,
2013-01-16 13:47:00,56.7,21.3,30.33,North,360,1.3,4.5,25,-99.99,,,-99.99,WSDL version 420,2013-01-16 21:47:00,
2013-01-16 13:52:00,57.2,21.0,30.33,NNW,338,2.7,4.5,24,-99.99,,,-99.99,WSDL version 420,2013-01-16 21:52:00,
2013-01-16 13:57:00,57.5,21.2,30.33,NE,34,1.1,4.0,24,-99.99,,,-99.99,WSDL version 420,2013-01-16 21:57:00,
2013-01-16 14:02:00,57.4,21.2,30.33,ENE,65,3.3,4.9,25,-99.99,,,-99.99,WSDL version 420,2013-01-16 22:02:00,
2013-01-16 14:07:00,57.8,21.3,30.33,NNW,335,1.2,4.9,24,-99.99,,,-99.99,WSDL version 420,2013-01-16 22:07:00,
2013-01-16 14:12:00,57.4,21.2,30.33,NE,42,1.1,5.8,24,-99.99,,,-99.99,WSDL version 420,2013-01-16 22:12:00,
2013-01-16 14:17:00,57.2,21.1,30.33,North,350,3.8,5.8,25,-99.99,,,-99.99,WSDL version 420,2013-01-16 22:17:00,
2013-01-16 14:22:00,56.8,21.0,30.33,North,360,1.0,5.4,24,-99.99,,,-99.99,WSDL version 420,2013-01-16 22:22:00,
2013-01-16 14:27:00,58.2,21.6,30.33,North,353,3.1,6.3,24,-99.99,,,-99.99,WSDL version 420,2013-01-16 22:27:00,
2013-01-16 14:32:00,57.3,21.0,30.33,NNE,23,3.4,6.3,24,-99.99,,,-99.99,WSDL version 420,2013-01-16 22:32:00,
2013-01-16 14:37:00,57.7,21.1,30.33,North,353,4.0,5.8,24,-99.99,,,-99.99,WSDL version 420,2013-01-16 22:37:00,
2013-01-16 14:42:00,57.1,21.2,30.33,NNW,340,3.0,5.8,24,-99.99,,,-99.99,WSDL version 420,2013-01-16 22:42:00,
2013-01-16 14:47:00,57.3,21.0,30.33,NNE,23,1.3,5.4,24,-99.99,,,-99.99,WSDL version 420,2013-01-16 22:47:00,
2013-01-16 14:52:00,57.7,21.2,30.33,ENE,73,3.5,5.4,24,-99.99,,,-99.99,WSDL version 420,2013-01-16 22:52:00,
2013-01-16 14:57:00,58.0,21.4,30.33,NE,45,0.0,5.4,24,-99.99,,,-99.99,WSDL version 420,2013-01-16 22:57:00,
2013-01-16 15:02:00,58.6,21.9,30.33,East,80,1.7,5.4,24,-99.99,,,-99.99,WSDL version 420,2013-01-16 23:02:00,
2013-01-16 15:07:00,57.8,21.3,30.33,North,8,4.5,6.3,24,-99.99,,,-99.99,WSDL version 420,2013-01-16 23:07:00,
2013-01-16 15:12:00,57.1,21.1,30.33,NNE,17,4.3,6.7,24,-99.99,,,-99.99,WSDL version 420,2013-01-16 23:12:00,
2013-01-16 15:17:00,56.9,21.3,30.33,North,358,3.8,6.7,24,-99.99,,,-99.99,WSDL version 420,2013-01-16 23:17:00,
2013-01-16 15:22:00,57.1,21.2,30.33,NNE,25,3.8,6.3,24,-99.99,,,-99.99,WSDL version 420,2013-01-16 23:22:00,
2013-01-16 15:27:00,56.8,21.4,30.33,NNE,13,5.3,7.6,25,-99.99,,,-99.99,WSDL version 420,2013-01-16 23:27:00,
2013-01-16 15:32:00,57.1,21.1,30.33,NNE,23,4.1,7.6,25,-99.99,,,-99.99,WSDL version 420,2013-01-16 23:32:00,
2013-01-16 15:37:00,56.9,21.3,30.33,NNE,15,4.3,5.8,25,-99.99,,,-99.99,WSDL version 420,2013-01-16 23:37:00,
2013-01-16 15:42:00,56.6,21.2,30.33,NNE,17,3.4,5.4,25,-99.99,,,-99.99,WSDL version 420,2013-01-16 23:42:00,
2013-01-16 15:47:00,56.5,21.1,30.33,NE,37,4.0,6.3,25,-99.99,,,-99.99,WSDL version 420,2013-01-16 23:47:00,
2013-01-16 15:52:00,56.3,21.0,30.33,North,358,4.2,6.3,25,-99.99,,,-99.99,WSDL version 420,2013-01-16 23:52:00,
2013-01-16 15:57:00,56.2,20.9,30.33,North,360,4.7,5.8,25,-99.99,,,-99.99,WSDL version 420,2013-01-16 23:57:00,
2013-01-16 16:02:00,55.9,20.6,30.33,North,6,5.4,7.2,25,-99.99,,,-99.99,WSDL version 420,2013-01-17 00:02:00,
2013-01-16 16:07:00,55.5,20.3,30.33,North,6,4.7,7.2,25,-99.99,,,-99.99,WSDL version 420,2013-01-17 00:07:00,
2013-01-16 16:12:00,55.6,20.3,30.33,NNE,23,4.0,6.3,25,-99.99,,,-99.99,WSDL version 420,2013-01-17 00:12:00,
2013-01-16 16:17:00,55.8,20.5,30.33,NNE,23,2.9,5.4,25,-99.99,,,-99.99,WSDL version 420,2013-01-17 00:17:00,
2013-01-16 16:22:00,55.6,20.3,30.33,NNE,23,2.9,4.0,25,-99.99,,,-99.99,WSDL version 420,2013-01-17 00:22:00,
2013-01-16 16:27:00,55.4,20.2,30.33,NNE,23,3.3,4.0,25,-99.99,,,-99.99,WSDL version 420,2013-01-17 00:27:00,
2013-01-16 16:32:00,55.1,19.9,30.33,North,11,2.7,4.0,25,-99.99,,,-99.99,WSDL version 420,2013-01-17 00:32:00,
2013-01-16 16:37:00,54.8,19.7,30.33,NNE,23,2.3,5.4,25,-99.99,,,-99.99,WSDL version 420,2013-01-17 00:37:00,
2013-01-16 16:42:00,54.6,19.5,30.33,North,11,1.1,5.4,25,-99.99,,,-99.99,WSDL version 420,2013-01-17 00:42:00,
2013-01-16 16:47:00,54.3,19.2,30.33,NNE,23,2.2,4.0,25,-99.99,,,-99.99,WSDL version 420,2013-01-17 00:47:00,
2013-01-16 16:52:00,53.7,18.8,30.33,NNW,340,3.4,4.9,25,-99.99,,,-99.99,WSDL version 420,2013-01-17 00:52:00,
2013-01-16 16:57:00,53.1,19.1,30.33,NNW,338,2.7,4.9,26,-99.99,,,-99.99,WSDL version 420,2013-01-17 00:57:00,
2013-01-16 17:02:00,52.5,18.6,30.33,NNW,338,1.2,4.0,26,-99.99,,,-99.99,WSDL version 420,2013-01-17 01:02:00,
2013-01-16 17:07:00,51.8,18.0,30.33,NNW,338,0.0,2.7,26,-99.99,,,-99.99,WSDL version 420,2013-01-17 01:07:00,
2013-01-16 17:12:00,51.0,17.3,30.33,NNW,338,0.0,2.2,26,-99.99,,,-99.99,WSDL version 420,2013-01-17 01:12:00,
2013-01-16 17:17:00,49.9,16.7,30.33,NNW,338,0.0,0.0,27,-99.99,,,-99.99,WSDL version 420,2013-01-17 01:17:00,
2013-01-16 17:22:00,48.9,16.4,30.33,NNW,338,0.0,2.2,27,-99.99,,,-99.99,WSDL version 420,2013-01-17 01:22:00,
2013-01-16 17:27:00,48.4,16.0,30.33,NNW,338,0.0,2.2,27,-99.99,,,-99.99,WSDL version 420,2013-01-17 01:27:00,
2013-01-16 17:32:00,47.9,15.5,30.33,NNW,338,0.0,0.0,27,-99.99,,,-99.99,WSDL version 420,2013-01-17 01:32:00,
2013-01-16 17:37:00,47.5,15.1,30.33,NNW,338,0.0,0.0,27,-99.99,,,-99.99,WSDL version 420,2013-01-17 01:37:00,
2013-01-16 17:42:00,46.6,14.6,30.33,NNW,338,0.0,0.0,28,-99.99,,,-99.99,WSDL version 420,2013-01-17 01:42:00,
2013-01-16 17:47:00,46.1,14.8,30.33,NNW,338,0.0,0.0,28,-99.99,,,-99.99,WSDL version 420,2013-01-17 01:47:00,
2013-01-16 17:52:00,45.1,14.0,30.33,NNW,338,0.0,0.0,28,-99.99,,,-99.99,WSDL version 420,2013-01-17 01:52:00,
2013-01-16 17:57:00,44.7,13.6,30.33,NNW,338,0.0,0.0,28,-99.99,,,-99.99,WSDL version 420,2013-01-17 01:57:00,
2013-01-16 18:02:00,43.9,12.9,30.36,NNW,338,0.0,0.0,28,-99.99,,,-99.99,WSDL version 420,2013-01-17 02:02:00,
2013-01-16 18:08:00,42.7,12.5,30.36,NNW,338,0.0,0.0,29,-99.99,,,-99.99,WSDL version 420,2013-01-17 02:08:00,
2013-01-16 18:13:00,42.1,12.2,30.33,NNW,338,0.0,2.2,29,-99.99,,,-99.99,WSDL version 420,2013-01-17 02:13:00,
2013-01-16 18:18:00,41.7,11.8,30.33,NNW,338,0.0,2.7,29,-99.99,,,-99.99,WSDL version 420,2013-01-17 02:18:00,
2013-01-16 18:23:00,41.6,11.7,30.33,NNW,338,0.0,2.7,29,-99.99,,,-99.99,WSDL version 420,2013-01-17 02:23:00,
2013-01-16 18:28:00,41.0,11.2,30.36,NNW,338,0.0,2.7,29,-99.99,,,-99.99,WSDL version 420,2013-01-17 02:28:00,
2013-01-16 18:33:00,40.4,11.1,30.36,NNW,338,0.0,0.0,30,-99.99,,,-99.99,WSDL version 420,2013-01-17 02:33:00,
2013-01-16 18:38:00,40.2,11.2,30.36,NNW,338,0.0,2.2,30,-99.99,,,-99.99,WSDL version 420,2013-01-17 02:38:00,
2013-01-16 18:43:00,40.0,11.1,30.36,NNW,338,1.0,2.7,30,-99.99,,,-99.99,WSDL version 420,2013-01-17 02:43:00,
2013-01-16 18:48:00,39.6,10.7,30.36,NNW,338,0.0,2.7,30,-99.99,,,-99.99,WSDL version 420,2013-01-17 02:48:00,
2013-01-16 18:53:00,39.0,10.2,30.36,NNW,338,0.0,0.0,30,-99.99,,,-99.99,WSDL version 420,2013-01-17 02:53:00,
2013-01-16 18:58:00,38.8,10.0,30.36,NNW,338,0.0,2.2,30,-99.99,,,-99.99,WSDL version 420,2013-01-17 02:58:00,
2013-01-16 19:03:00,38.5,9.7,30.36,NNW,338,0.0,2.2,30,-99.99,,,-99.99,WSDL version 420,2013-01-17 03:03:00,
2013-01-16 19:08:00,38.0,9.4,30.36,NNW,338,0.0,0.0,30,-99.99,,,-99.99,WSDL version 420,2013-01-17 03:08:00,
2013-01-16 19:13:00,37.9,10.0,30.36,NNW,338,0.0,2.2,31,-99.99,,,-99.99,WSDL version 420,2013-01-17 03:13:00,
2013-01-16 19:18:00,37.7,9.7,30.36,NNW,338,0.0,2.7,31,-99.99,,,-99.99,WSDL version 420,2013-01-17 03:18:00,
2013-01-16 19:23:00,37.3,9.3,30.36,NNW,338,0.0,2.7,31,-99.99,,,-99.99,WSDL version 420,2013-01-17 03:23:00,
2013-01-16 19:28:00,36.9,9.1,30.36,NNW,338,0.0,2.7,31,-99.99,,,-99.99,WSDL version 420,2013-01-17 03:28:00,
2013-01-16 19:33:00,36.4,8.6,30.36,NNW,338,0.0,0.0,31,-99.99,,,-99.99,WSDL version 420,2013-01-17 03:33:00,
2013-01-16 19:38:00,36.2,8.5,30.36,NNW,338,0.0,0.0,31,-99.99,,,-99.99,WSDL version 420,2013-01-17 03:38:00,
2013-01-16 19:43:00,36.1,8.4,30.36,NNW,338,0.0,0.0,31,-99.99,,,-99.99,WSDL version 420,2013-01-17 03:43:00,
2013-01-16 19:48:00,35.7,8.1,30.36,NNW,338,0.0,0.0,31,-99.99,,,-99.99,WSDL version 420,2013-01-17 03:48:00,
2013-01-16 19:53:00,35.4,8.3,30.36,NNW,338,0.0,0.0,32,-99.99,,,-99.99,WSDL version 420,2013-01-17 03:53:00,
2013-01-16 19:58:00,35.1,8.2,30.33,NNW,338,0.0,0.0,32,-99.99,,,-99.99,WSDL version 420,2013-01-17 03:58:00,
2013-01-16 20:03:00,34.8,7.9,30.33,NNW,338,0.0,0.0,32,-99.99,,,-99.99,WSDL version 420,2013-01-17 04:03:00,
2013-01-16 20:08:00,34.8,8.0,30.33,NNW,338,0.0,0.0,32,-99.99,,,-99.99,WSDL version 420,2013-01-17 04:08:00,
2013-01-16 20:13:00,34.6,7.8,30.33,NNW,338,0.0,0.0,32,-99.99,,,-99.99,WSDL version 420,2013-01-17 04:13:00,
2013-01-16 20:18:00,34.5,7.7,30.33,NNW,338,1.0,2.7,32,-99.99,,,-99.99,WSDL version 420,2013-01-17 04:18:00,
2013-01-16 20:23:00,34.9,8.0,30.33,NNW,338,0.0,2.7,32,-99.99,,,-99.99,WSDL version 420,2013-01-17 04:23:00,
2013-01-16 20:28:00,35.0,8.1,30.33,NNW,338,0.0,2.2,32,-99.99,,,-99.99,WSDL version 420,2013-01-17 04:28:00,
2013-01-16 20:33:00,34.7,7.8,30.33,NNW,338,0.0,2.2,32,-99.99,,,-99.99,WSDL version 420,2013-01-17 04:33:00,
2013-01-16 20:38:00,34.0,7.3,30.33,NNW,338,0.0,2.2,33,-99.99,,,-99.99,WSDL version 420,2013-01-17 04:38:00,
2013-01-16 20:43:00,33.6,7.4,30.33,NNW,338,0.0,0.0,32,-99.99,,,-99.99,WSDL version 420,2013-01-17 04:43:00,
2013-01-16 20:48:00,33.6,7.1,30.33,NNW,338,1.0,3.1,32,-99.99,,,-99.99,WSDL version 420,2013-01-17 04:48:00,
2013-01-16 20:53:00,33.7,6.9,30.33,NNW,338,0.0,3.1,32,-99.99,,,-99.99,WSDL version 420,2013-01-17 04:53:00,
2013-01-16 20:58:00,33.6,6.8,30.33,NNW,338,0.0,2.7,32,-99.99,,,-99.99,WSDL version 420,2013-01-17 04:58:00,
2013-01-16 21:00:00,33.5,6.8,30.33,NNW,338,2.0,3.1,32,-99.99,,,-99.99,WSDL version 420,2013-01-17 05:00:00,
2013-01-16 21:03:00,33.3,6.6,30.33,NNW,338,0.0,3.1,32,-99.99,,,-99.99,WSDL version 420,2013-01-17 05:03:00,
2013-01-16 21:04:00,33.3,6.6,30.33,NNW,338,0.0,3.1,32,-99.99,,,-99.99,WSDL version 420,2013-01-17 05:04:00,
2013-01-16 21:09:00,33.2,6.5,30.33,NNW,338,1.1,2.7,32,-99.99,,,-99.99,WSDL version 420,2013-01-17 05:09:00,
2013-01-16 21:14:00,33.1,6.4,30.33,NNW,338,0.0,2.7,32,-99.99,,,-99.99,WSDL version 420,2013-01-17 05:14:00,
2013-01-16 21:18:00,32.7,6.1,30.33,NNW,338,0.0,2.2,32,-99.99,,,-99.99,WSDL version 420,2013-01-17 05:18:00,
2013-01-16 21:23:00,32.3,5.8,30.33,NNW,338,0.0,0.0,33,-99.99,,,-99.99,WSDL version 420,2013-01-17 05:23:00,
2013-01-16 21:28:00,32.0,8.0,30.33,NNW,338,0.0,2.2,33,-99.99,,,-99.99,WSDL version 420,2013-01-17 05:28:00,
2013-01-16 21:33:00,31.6,8.6,30.33,NNW,338,0.0,2.2,33,-99.99,,,-99.99,WSDL version 420,2013-01-17 05:33:00,
2013-01-16 21:38:00,31.2,8.2,30.33,NNW,338,0.0,2.2,33,-99.99,,,-99.99,WSDL version 420,2013-01-17 05:38:00,
2013-01-16 21:43:00,31.2,8.1,30.33,NNW,338,0.0,0.0,33,-99.99,,,-99.99,WSDL version 420,2013-01-17 05:43:00,
2013-01-16 21:48:00,30.5,7.6,30.33,NNW,338,0.0,0.0,34,-99.99,,,-99.99,WSDL version 420,2013-01-17 05:48:00,
2013-01-16 21:53:00,30.3,7.7,30.33,NNW,338,0.0,0.0,34,-99.99,,,-99.99,WSDL version 420,2013-01-17 05:53:00,
2013-01-16 21:58:00,30.1,7.8,30.33,NNW,338,0.0,0.0,34,-99.99,,,-99.99,WSDL version 420,2013-01-17 05:58:00,
2013-01-16 22:03:00,29.5,7.4,30.33,NNW,338,0.0,0.0,35,-99.99,,,-99.99,WSDL version 420,2013-01-17 06:03:00,
2013-01-16 22:08:00,29.6,7.9,30.33,NNW,338,0.0,2.7,35,-99.99,,,-99.99,WSDL version 420,2013-01-17 06:08:00,
2013-01-16 22:13:00,29.9,8.1,30.33,NNW,338,0.0,2.7,35,-99.99,,,-99.99,WSDL version 420,2013-01-17 06:13:00,
2013-01-16 22:18:00,29.8,8.6,30.33,NNW,338,0.0,2.2,36,-99.99,,,-99.99,WSDL version 420,2013-01-17 06:18:00,
2013-01-16 22:23:00,29.7,8.5,30.33,NNW,338,0.0,2.2,36,-99.99,,,-99.99,WSDL version 420,2013-01-17 06:23:00,
2013-01-16 22:28:00,29.8,9.1,30.33,NNW,338,0.0,2.7,37,-99.99,,,-99.99,WSDL version 420,2013-01-17 06:28:00,
2013-01-16 22:33:00,30.2,9.5,30.33,NNW,338,0.0,3.1,37,-99.99,,,-99.99,WSDL version 420,2013-01-17 06:33:00,
2013-01-16 22:38:00,30.2,9.6,30.33,NNW,338,0.0,3.1,37,-99.99,,,-99.99,WSDL version 420,2013-01-17 06:38:00,
2013-01-16 22:43:00,29.7,9.4,30.33,NNW,338,0.0,0.0,38,-99.99,,,-99.99,WSDL version 420,2013-01-17 06:43:00,
2013-01-16 22:48:00,29.4,9.6,30.33,NNW,338,0.0,0.0,39,-99.99,,,-99.99,WSDL version 420,2013-01-17 06:48:00,
2013-01-16 22:53:00,30.1,10.4,30.33,NNW,338,0.0,2.2,39,-99.99,,,-99.99,WSDL version 420,2013-01-17 06:53:00,
2013-01-16 22:58:00,30.0,10.5,30.33,NNW,338,0.0,2.2,40,-99.99,,,-99.99,WSDL version 420,2013-01-17 06:58:00,
2013-01-16 23:03:00,30.2,10.6,30.33,NNW,338,0.0,2.2,39,-99.99,,,-99.99,WSDL version 420,2013-01-17 07:03:00,
2013-01-16 23:08:00,30.2,10.6,30.33,NNW,338,0.0,2.2,39,-99.99,,,-99.99,WSDL version 420,2013-01-17 07:08:00,
2013-01-16 23:13:00,30.1,10.5,30.33,NNW,338,0.0,2.2,39,-99.99,,,-99.99,WSDL version 420,2013-01-17 07:13:00,
2013-01-16 23:18:00,29.7,10.1,30.33,NNW,338,0.0,2.7,39,-99.99,,,-99.99,WSDL version 420,2013-01-17 07:18:00,
2013-01-16 23:23:00,29.5,10.0,30.33,NNW,338,1.1,2.7,39,-99.99,,,-99.99,WSDL version 420,2013-01-17 07:23:00,
2013-01-16 23:28:00,29.2,9.4,30.33,NNW,338,0.0,2.7,39,-99.99,,,-99.99,WSDL version 420,2013-01-17 07:28:00,
2013-01-16 23:33:00,28.7,9.2,30.33,NNW,338,0.0,2.2,39,-99.99,,,-99.99,WSDL version 420,2013-01-17 07:33:00,
2013-01-16 23:38:00,28.5,9.0,30.33,NNW,338,0.0,0.0,39,-99.99,,,-99.99,WSDL version 420,2013-01-17 07:38:00,
2013-01-16 23:43:00,28.7,9.3,30.33,NNW,338,0.0,2.2,39,-99.99,,,-99.99,WSDL version 420,2013-01-17 07:43:00,
2013-01-16 23:48:00,28.7,9.3,30.33,NNW,338,1.2,3.1,39,-99.99,,,-99.99,WSDL version 420,2013-01-17 07:48:00,
2013-01-16 23:53:00,28.3,8.8,30.33,NNW,338,0.0,3.1,39,-99.99,,,-99.99,WSDL version 420,2013-01-17 07:53:00,
2013-01-16 23:58:00,27.8,8.8,30.33,NNW,338,0.0,3.6,40,-99.99,,,-99.99,WSDL version 420,2013-01-17 07:58:00,